Time,TemperatureF,DewpointF,PressureIn,WindDirection,WindDirectionDegrees,WindSpeedMPH,WindSpeedGustMPH,Humidity,HourlyPrecipIn,Conditions,Clouds,dailyrainin,SoftwareType,DateUTC
2013-08-09 00:22:00,54.0,39.0,-100.00,North,359,3.0,7.0,56,0.00,,,0.00,,2013-08-09 07:22:00,
2013-08-09 00:33:00,54.0,39.0,-100.00,North,359,3.0,7.0,56,0.00,,,0.00,,2013-08-09 07:33:00,
2013-08-09 00:43:00,54.0,39.0,-100.00,North,359,3.0,7.0,56,0.00,,,0.00,,2013-08-09 07:43:00,
2013-08-09 00:52:00,54.0,39.0,-100.00,North,359,3.0,7.0,56,0.00,,,0.00,,2013-08-09 07:52:00,
2013-08-09 00:53:00,53.0,38.0,-100.00,North,354,2.0,5.0,57,0.00,,,0.00,,2013-08-09 07:53:00,
2013-08-09 01:22:00,53.0,38.0,-100.00,North,354,2.0,5.0,57,0.00,,,0.00,,2013-08-09 08:22:00,
2013-08-09 01:32:00,53.0,38.0,-100.00,North,354,2.0,5.0,57,0.00,,,0.00,,2013-08-09 08:32:00,
2013-08-09 01:43:00,53.0,38.0,-100.00,North,354,2.0,5.0,57,0.00,,,0.00,,2013-08-09 08:43:00,
2013-08-09 02:22:00,50.0,39.0,-100.00,East,100,1.0,4.0,66,0.00,,,0.00,,2013-08-09 09:22:00,
2013-08-09 02:32:00,50.0,39.0,-100.00,East,100,1.0,4.0,66,0.00,,,0.00,,2013-08-09 09:32:00,
2013-08-09 02:43:00,50.0,39.0,-100.00,East,100,1.0,4.0,66,0.00,,,0.00,,2013-08-09 09:43:00,
2013-08-09 02:52:00,50.0,39.0,-100.00,East,100,1.0,4.0,66,0.00,,,0.00,,2013-08-09 09:52:00,
2013-08-09 02:53:00,49.0,37.0,-100.00,ESE,117,1.0,3.0,64,0.00,,,0.00,,2013-08-09 09:53:00,
2013-08-09 03:22:00,49.0,37.0,-100.00,ESE,117,1.0,3.0,64,0.00,,,0.00,,2013-08-09 10:22:00,
2013-08-09 03:32:00,49.0,37.0,-100.00,ESE,117,1.0,3.0,64,0.00,,,0.00,,2013-08-09 10:32:00,
2013-08-09 03:43:00,49.0,37.0,-100.00,ESE,117,1.0,3.0,64,0.00,,,0.00,,2013-08-09 10:43:00,
2013-08-09 03:53:00,48.0,36.0,-100.00,SE,132,2.0,3.0,64,0.00,,,0.00,,2013-08-09 10:53:00,
2013-08-09 04:22:00,48.0,36.0,-100.00,SE,132,2.0,3.0,64,0.00,,,0.00,,2013-08-09 11:22:00,
2013-08-09 04:33:00,48.0,36.0,-100.00,SE,132,2.0,3.0,64,0.00,,,0.00,,2013-08-09 11:33:00,
2013-08-09 04:42:00,48.0,36.0,-100.00,SE,132,2.0,3.0,64,0.00,,,0.00,,2013-08-09 11:42:00,
2013-08-09 05:22:00,47.0,35.0,-100.00,SE,126,2.0,3.0,64,0.00,,,0.00,,2013-08-09 12:22:00,
2013-08-09 05:32:00,47.0,35.0,-100.00,SE,126,2.0,3.0,64,0.00,,,0.00,,2013-08-09 12:32:00,
2013-08-09 05:43:00,47.0,35.0,-100.00,SE,126,2.0,3.0,64,0.00,,,0.00,,2013-08-09 12:43:00,
2013-08-09 05:52:00,47.0,35.0,-100.00,SE,126,2.0,3.0,64,0.00,,,0.00,,2013-08-09 12:52:00,
2013-08-09 06:23:00,45.0,32.0,-100.00,SE,140,2.0,4.0,61,0.00,,,0.00,,2013-08-09 13:23:00,
2013-08-09 06:32:00,45.0,32.0,-100.00,SE,140,2.0,4.0,61,0.00,,,0.00,,2013-08-09 13:32:00,
2013-08-09 06:43:00,45.0,32.0,-100.00,SE,140,2.0,4.0,61,0.00,,,0.00,,2013-08-09 13:43:00,
2013-08-09 06:52:00,45.0,32.0,-100.00,SE,140,2.0,4.0,61,0.00,,,0.00,,2013-08-09 13:52:00,
2013-08-09 06:53:00,47.0,36.0,-100.00,SE,127,2.0,4.0,66,-99.99,,,0.00,,2013-08-09 13:53:00,
2013-08-09 07:22:00,47.0,36.0,-100.00,SE,127,2.0,4.0,66,-99.99,,,0.00,,2013-08-09 14:22:00,
2013-08-09 07:33:00,47.0,36.0,-100.00,SE,127,2.0,4.0,66,-99.99,,,0.00,,2013-08-09 14:33:00,
2013-08-09 07:43:00,47.0,36.0,-100.00,SE,127,2.0,4.0,66,-99.99,,,0.00,,2013-08-09 14:43:00,
2013-08-09 07:53:00,52.0,41.0,-100.00,NE,55,1.0,3.0,65,0.00,,,0.00,,2013-08-09 14:53:00,
2013-08-09 08:22:00,52.0,41.0,-100.00,NE,55,1.0,3.0,65,0.00,,,0.00,,2013-08-09 15:22:00,
2013-08-09 08:32:00,52.0,41.0,-100.00,NE,55,1.0,3.0,65,0.00,,,0.00,,2013-08-09 15:32:00,
2013-08-09 08:44:00,52.0,41.0,-100.00,NE,55,1.0,3.0,65,0.00,,,0.00,,2013-08-09 15:44:00,
2013-08-09 08:53:00,60.0,38.0,-100.00,WNW,302,3.0,5.0,44,0.00,,,0.00,,2013-08-09 15:53:00,
2013-08-09 09:22:00,60.0,38.0,-100.00,WNW,302,3.0,5.0,44,0.00,,,0.00,,2013-08-09 16:22:00,
2013-08-09 09:32:00,60.0,38.0,-100.00,WNW,302,3.0,5.0,44,0.00,,,0.00,,2013-08-09 16:32:00,
2013-08-09 09:43:00,60.0,38.0,-100.00,WNW,302,3.0,5.0,44,0.00,,,0.00,,2013-08-09 16:43:00,
2013-08-09 10:22:00,64.0,37.0,-100.00,West,279,4.0,7.0,37,0.00,,,0.00,,2013-08-09 17:22:00,
2013-08-09 10:33:00,64.0,37.0,-100.00,West,279,4.0,7.0,37,0.00,,,0.00,,2013-08-09 17:33:00,
2013-08-09 10:43:00,64.0,37.0,-100.00,West,279,4.0,7.0,37,0.00,,,0.00,,2013-08-09 17:43:00,
2013-08-09 10:52:00,64.0,37.0,-100.00,West,279,4.0,7.0,37,0.00,,,0.00,,2013-08-09 17:52:00,
2013-08-09 11:22:00,69.0,39.0,-100.00,West,259,4.0,8.0,34,0.00,,,0.00,,2013-08-09 18:22:00,
2013-08-09 11:32:00,69.0,39.0,-100.00,West,259,4.0,8.0,34,0.00,,,0.00,,2013-08-09 18:32:00,
2013-08-09 11:43:00,69.0,39.0,-100.00,West,259,4.0,8.0,34,0.00,,,0.00,,2013-08-09 18:43:00,
2013-08-09 11:52:00,69.0,39.0,-100.00,West,259,4.0,8.0,34,0.00,,,0.00,,2013-08-09 18:52:00,
2013-08-09 12:22:00,70.0,39.0,-100.00,West,276,4.0,10.0,32,0.00,,,0.00,,2013-08-09 19:22:00,
2013-08-09 12:32:00,70.0,39.0,-100.00,West,276,4.0,10.0,32,0.00,,,0.00,,2013-08-09 19:32:00,
2013-08-09 12:43:00,70.0,39.0,-100.00,West,276,4.0,10.0,32,0.00,,,0.00,,2013-08-09 19:43:00,
2013-08-09 12:52:00,70.0,39.0,-100.00,West,276,4.0,10.0,32,0.00,,,0.00,,2013-08-09 19:52:00,
2013-08-09 13:22:00,72.0,40.0,-100.00,NW,317,4.0,11.0,31,0.00,,,0.00,,2013-08-09 20:22:00,
2013-08-09 13:32:00,72.0,40.0,-100.00,NW,317,4.0,11.0,31,0.00,,,0.00,,2013-08-09 20:32:00,
2013-08-09 13:43:00,72.0,40.0,-100.00,NW,317,4.0,11.0,31,0.00,,,0.00,,2013-08-09 20:43:00,
2013-08-09 13:52:00,72.0,40.0,-100.00,NW,317,4.0,11.0,31,0.00,,,0.00,,2013-08-09 20:52:00,
2013-08-09 14:22:00,74.0,37.0,-100.00,NW,310,5.0,11.0,26,0.00,,,0.00,,2013-08-09 21:22:00,
2013-08-09 14:33:00,74.0,37.0,-100.00,NW,310,5.0,11.0,26,0.00,,,0.00,,2013-08-09 21:33:00,
2013-08-09 14:43:00,74.0,37.0,-100.00,NW,310,5.0,11.0,26,0.00,,,0.00,,2013-08-09 21:43:00,
2013-08-09 14:52:00,74.0,37.0,-100.00,NW,310,5.0,11.0,26,0.00,,,0.00,,2013-08-09 21:52:00,
2013-08-09 15:22:00,73.0,41.0,-100.00,West,271,5.0,10.0,31,0.00,,,0.00,,2013-08-09 22:22:00,
2013-08-09 15:32:00,73.0,41.0,-100.00,West,271,5.0,10.0,31,0.00,,,0.00,,2013-08-09 22:32:00,
2013-08-09 15:42:00,73.0,41.0,-100.00,West,271,5.0,10.0,31,0.00,,,0.00,,2013-08-09 22:42:00,
2013-08-09 15:52:00,73.0,41.0,-100.00,West,271,5.0,10.0,31,0.00,,,0.00,,2013-08-09 22:52:00,
2013-08-09 16:21:00,73.0,41.0,-100.00,West,280,5.0,9.0,32,0.00,,,0.00,,2013-08-09 23:21:00,
2013-08-09 16:32:00,73.0,41.0,-100.00,West,280,5.0,9.0,32,0.00,,,0.00,,2013-08-09 23:32:00,
2013-08-09 16:43:00,73.0,41.0,-100.00,West,280,5.0,9.0,32,0.00,,,0.00,,2013-08-09 23:43:00,
2013-08-09 16:52:00,73.0,41.0,-100.00,West,280,5.0,9.0,32,0.00,,,0.00,,2013-08-09 23:52:00,
2013-08-09 17:22:00,73.0,43.0,-100.00,WNW,289,5.0,10.0,34,0.00,,,0.00,,2013-08-10 00:22:00,
2013-08-09 17:33:00,73.0,43.0,-100.00,WNW,289,5.0,10.0,34,0.00,,,0.00,,2013-08-10 00:33:00,
2013-08-09 17:43:00,73.0,43.0,-100.00,WNW,289,5.0,10.0,34,0.00,,,0.00,,2013-08-10 00:43:00,
2013-08-09 17:52:00,73.0,43.0,-100.00,WNW,289,5.0,10.0,34,0.00,,,0.00,,2013-08-10 00:52:00,
2013-08-09 18:21:00,69.0,39.0,-100.00,WNW,295,5.0,10.0,34,0.00,,,0.00,,2013-08-10 01:21:00,
2013-08-09 18:32:00,69.0,39.0,-100.00,WNW,295,5.0,10.0,34,0.00,,,0.00,,2013-08-10 01:32:00,
2013-08-09 18:42:00,69.0,39.0,-100.00,WNW,295,5.0,10.0,34,0.00,,,0.00,,2013-08-10 01:42:00,
2013-08-09 18:52:00,69.0,39.0,-100.00,WNW,295,5.0,10.0,34,0.00,,,0.00,,2013-08-10 01:52:00,
2013-08-09 19:11:00,66.0,40.0,-100.00,WNW,294,4.0,10.0,39,0.00,,,0.00,,2013-08-10 02:11:00,
2013-08-09 19:21:00,66.0,40.0,-100.00,WNW,294,4.0,10.0,39,0.00,,,0.00,,2013-08-10 02:21:00,
2013-08-09 19:32:00,66.0,40.0,-100.00,WNW,294,4.0,10.0,39,0.00,,,0.00,,2013-08-10 02:32:00,
2013-08-09 19:42:00,66.0,40.0,-100.00,WNW,294,4.0,10.0,39,0.00,,,0.00,,2013-08-10 02:42:00,
2013-08-09 19:52:00,66.0,40.0,-100.00,WNW,294,4.0,10.0,39,0.00,,,0.00,,2013-08-10 02:52:00,
2013-08-09 20:11:00,61.0,38.0,-100.00,NW,318,3.0,7.0,42,0.00,,,0.00,,2013-08-10 03:11:00,
2013-08-09 20:21:00,61.0,38.0,-100.00,NW,318,3.0,7.0,42,0.00,,,0.00,,2013-08-10 03:21:00,
2013-08-09 20:32:00,61.0,38.0,-100.00,NW,318,3.0,7.0,42,0.00,,,0.00,,2013-08-10 03:32:00,
2013-08-09 20:42:00,61.0,38.0,-100.00,NW,318,3.0,7.0,42,0.00,,,0.00,,2013-08-10 03:42:00,
2013-08-09 20:51:00,61.0,38.0,-100.00,NW,318,3.0,7.0,42,0.00,,,0.00,,2013-08-10 03:51:00,
2013-08-09 20:53:00,58.0,40.0,-100.00,North,349,3.0,6.0,51,0.00,,,0.00,,2013-08-10 03:53:00,
2013-08-09 21:12:00,58.0,40.0,-100.00,North,349,3.0,6.0,51,0.00,,,0.00,,2013-08-10 04:12:00,
2013-08-09 21:22:00,58.0,40.0,-100.00,North,349,3.0,6.0,51,0.00,,,0.00,,2013-08-10 04:22:00,
2013-08-09 21:32:00,58.0,40.0,-100.00,North,349,3.0,6.0,51,0.00,,,0.00,,2013-08-10 04:32:00,
2013-08-09 21:42:00,58.0,40.0,-100.00,North,349,3.0,6.0,51,0.00,,,0.00,,2013-08-10 04:42:00,
2013-08-09 22:22:00,57.0,41.0,-100.00,North,356,3.0,6.0,55,0.00,,,0.00,,2013-08-10 05:22:00,
2013-08-09 22:32:00,57.0,41.0,-100.00,North,356,3.0,6.0,55,0.00,,,0.00,,2013-08-10 05:32:00,
2013-08-09 22:42:00,57.0,41.0,-100.00,North,356,3.0,6.0,55,0.00,,,0.00,,2013-08-10 05:42:00,
2013-08-09 22:52:00,57.0,41.0,-100.00,North,356,3.0,6.0,55,0.00,,,0.00,,2013-08-10 05:52:00,
2013-08-09 23:22:00,57.0,39.0,-100.00,NW,322,3.0,5.0,50,0.00,,,0.00,,2013-08-10 06:22:00,
2013-08-09 23:32:00,57.0,39.0,-100.00,NW,322,3.0,5.0,50,0.00,,,0.00,,2013-08-10 06:32:00,
2013-08-09 23:44:00,57.0,39.0,-100.00,NW,322,3.0,5.0,50,0.00,,,0.00,,2013-08-10 06:44:00,
2013-08-09 23:52:00,57.0,39.0,-100.00,NW,322,3.0,5.0,50,0.00,,,0.00,,2013-08-10 06:52:00,